Location: Observatoire
(46.1952°N, 5.3391°E)
Time: 01:53:54
(UTC+01:00)

Altair - Pass Details

Date: 25 February 2026
Orbit: 1502 x 1682 km, 47.2° (Epoch: 10 March)

Event Time Altitude Azimuth Distance (km) Brightness Sun altitude
Rises 03:03:52 0° 224° (SW) 4,630 - -43.4°
Reaches altitude 10° 03:06:57 10° 220° (SW) 3,646 - -43.0°
Maximum altitude 03:15:44 54° 146° (SSE) 1,775 - -41.9°
Exits shadow 03:17:43 47° 108° (ESE) 1,921 8.0 -41.6°
Drops below altitude 10° 03:24:40 10° 73° (ENE) 3,702 10.1 -40.6°
Sets 03:27:49 0° 69° (ENE) 4,706 10.9 -40.2°
